LVFPM SAAR-SABE

Flight info

Callsign LVFPM
Flight time N/A
Altitude 5000
Route VASAL2G VASAL W20 MULTA W24 SNT SNT9R
Aircraft BE58/L-SDFGRY/C

Departure

Time 2026-05-08 00:44
Airport Rosario Islas Malvinas International Airport (SAAR)

Arrival

Time N/A
Airport Aeroparque Jorge Newbery (SABE)
Time Latitude Longitude Altitude Speed Heading
2026-05-08 00:13 -32.91473 -60.78051 87 ft 0 kts 110°
2026-05-08 00:18 -32.91473 -60.78050 87 ft 0 kts 111°
2026-05-08 00:18 -32.91471 -60.78057 87 ft 1 kts 94°
2026-05-08 00:19 -32.91476 -60.78070 87 ft 1 kts 31°
2026-05-08 00:19 -32.91472 -60.78070 87 ft 2 kts 352°
2026-05-08 00:19 -32.91462 -60.78083 87 ft 3 kts 286°
2026-05-08 00:19 -32.91460 -60.78090 87 ft 0 kts 289°
2026-05-08 00:23 -32.91459 -60.78095 87 ft 0 kts 294°
2026-05-08 00:24 -32.91459 -60.78096 87 ft 0 kts 295°
2026-05-08 00:35 -32.91458 -60.78097 87 ft 1 kts 295°
2026-05-08 00:35 -32.91446 -60.78129 87 ft 6 kts 289°
2026-05-08 00:35 -32.91407 -60.78181 87 ft 10 kts 334°
2026-05-08 00:35 -32.91334 -60.78244 87 ft 14 kts 322°
2026-05-08 00:36 -32.91246 -60.78326 87 ft 17 kts 323°
2026-05-08 00:36 -32.91139 -60.78426 87 ft 20 kts 321°
2026-05-08 00:36 -32.91012 -60.78516 87 ft 22 kts 334°
2026-05-08 00:36 -32.90854 -60.78567 87 ft 24 kts
2026-05-08 00:37 -32.90679 -60.78540 87 ft 26 kts
2026-05-08 00:37 -32.90490 -60.78499 87 ft 27 kts 10°
2026-05-08 00:37 -32.90295 -60.78455 87 ft 28 kts 11°
2026-05-08 00:38 -32.89893 -60.78363 87 ft 30 kts 10°
2026-05-08 00:38 -32.89683 -60.78315 87 ft 30 kts 11°
2026-05-08 00:38 -32.89473 -60.78267 87 ft 31 kts 10°
2026-05-08 00:38 -32.89257 -60.78219 87 ft 31 kts 11°
2026-05-08 00:39 -32.89116 -60.78151 87 ft 13 kts 38°
2026-05-08 00:39 -32.89065 -60.78174 87 ft 7 kts 229°
2026-05-08 00:39 -32.89106 -60.78184 87 ft 0 kts 192°
2026-05-08 00:43 -32.89119 -60.78187 87 ft 11 kts 192°
2026-05-08 00:43 -32.89451 -60.78261 87 ft 85 kts 189°
2026-05-08 00:43 -32.90169 -60.78412 207 ft 111 kts 194°
2026-05-08 00:44 -32.90983 -60.78591 399 ft 129 kts 194°
2026-05-08 00:44 -32.91904 -60.78785 782 ft 132 kts 195°
2026-05-08 00:44 -32.92819 -60.78991 1206 ft 131 kts 196°
2026-05-08 00:44 -32.93698 -60.79194 1646 ft 126 kts 197°
2026-05-08 00:45 -32.94532 -60.79388 2087 ft 120 kts 198°
2026-05-08 00:45 -32.95336 -60.79575 2506 ft 115 kts 199°
2026-05-08 00:45 -32.96108 -60.79755 2902 ft 112 kts 200°
2026-05-08 00:45 -32.96862 -60.79932 3293 ft 110 kts 200°
2026-05-08 00:46 -32.97594 -60.80103 3670 ft 108 kts 200°
2026-05-08 00:46 -32.98327 -60.80275 4017 ft 108 kts 200°
2026-05-08 00:46 -32.99072 -60.80450 4335 ft 110 kts 200°
2026-05-08 00:46 -32.99827 -60.80627 4630 ft 113 kts 200°
2026-05-08 00:47 -33.00639 -60.80723 4847 ft 125 kts 185°
2026-05-08 00:47 -33.01578 -60.80514 4832 ft 148 kts 175°
2026-05-08 00:47 -33.02584 -60.79968 4821 ft 166 kts 162°
2026-05-08 00:47 -33.03575 -60.79170 4825 ft 175 kts 156°
2026-05-08 00:48 -33.04542 -60.78258 4825 ft 180 kts 153°
2026-05-08 00:48 -33.05518 -60.77280 4826 ft 183 kts 152°
2026-05-08 00:48 -33.06500 -60.76274 4815 ft 185 kts 151°
2026-05-08 00:48 -33.07471 -60.75272 4817 ft 186 kts 151°
2026-05-08 00:49 -33.08459 -60.74250 4809 ft 186 kts 151°
2026-05-08 00:49 -33.09351 -60.73097 4815 ft 195 kts 137°
2026-05-08 00:49 -33.10325 -60.72089 4823 ft 182 kts 157°
2026-05-08 00:49 -33.11366 -60.71173 4815 ft 185 kts 154°
2026-05-08 00:50 -33.12373 -60.70197 4817 ft 187 kts 152°
2026-05-08 00:50 -33.13384 -60.69178 4819 ft 188 kts 152°